Ravenna, OH

9:44 AM EST on November 19, 2017 (GMT -0500)
Ravenna

Weather History for KPOV - June, 2014

Change the Weather History Date:

Friday, June 6, 2014

  Actual Average (KCAK) Record (KCAK)
Temperature  
Mean Temperature 60 °F -  
Max Temperature 74 °F 76 °F 93 °F (1925)
Min Temperature 46 °F 54 °F 36 °F (1945)
Degree Days  
Heating Degree Days 5    
Growing Degree Days 10 (Base 50)    
Moisture  
Dew Point 45 °F    
Average Humidity 60    
Maximum Humidity 100    
Minimum Humidity 32    
Precipitation  
Precipitation 0.00 in - - ()
Sea Level Pressure  
Sea Level Pressure 30.01 in    
Wind  
Wind Speed 2 mph (North)    
Max Wind Speed 9 mph    
Max Gust Speed -    
Visibility 10 miles    
Events      
Averages and records for this station are not official NWS values.
T = Trace of Precipitation, MM = Missing Value Source: NWS Daily Summary

Daily Weather History Graph

Daily Weather History Graph

Search for Another Location

Airport or City:

Trip Planner

Search our weather history database for the weather conditions in past years. The results will help you decide how hot, cold, wet, or windy it might be!

Date:

Astronomy

Jun. 06, 2014 Rise Set
Actual Time 5:52 AM EDT 8:55 PM EDT
Civil Twilight 5:19 AM EDT 9:28 PM EDT
Nautical Twilight 4:36 AM EDT 10:10 PM EDT
Astronomical Twilight 3:47 AM EDT 11:01 PM EDT
Moon 2:09 PM EDT (6/6) 1:47 AM EDT (6/6)
Length of Visible Light 16h 09m
Length of Day
15h 02m
First Quarter, 58% of the Moon is Illuminated
Jun 6
First Quarter
Jun 13
Full
Jun 19
Last Quarter
Jun 27
New
Jul 5
First Quarter

Hourly Weather History & Observations

Time (EDT) Temp. Dew Point Humidity Pressure Visibility Wind Dir Wind Speed Gust Speed Precip Events Conditions
12:17 AM 55.0 °F 43.5 °F 65% 29.96 in 10.0 mi Calm Calm - N/A   Clear
12:36 AM 56.3 °F 44.6 °F 65% 29.96 in 10.0 mi Calm Calm - N/A   Clear
12:57 AM 53.6 °F 45.0 °F 73% 29.96 in 10.0 mi Calm Calm - N/A   Clear
1:17 AM 51.8 °F 44.6 °F 76% 29.96 in 10.0 mi Calm Calm - N/A   Clear
1:36 AM 49.8 °F 44.2 °F 81% 29.96 in 10.0 mi Calm Calm - N/A   Clear
1:57 AM 49.3 °F 45.7 °F 87% 29.96 in 10.0 mi Calm Calm - N/A   Clear
2:17 AM 52.2 °F 46.4 °F 81% 29.96 in 10.0 mi Calm Calm - N/A   Clear
2:37 AM 49.1 °F 47.8 °F 95% 29.96 in 10.0 mi Calm Calm - N/A   Clear
2:57 AM 48.7 °F 47.8 °F 97% 29.96 in 10.0 mi Calm Calm - N/A   Clear
3:17 AM 50.4 °F 47.1 °F 89% 29.97 in 10.0 mi Calm Calm - N/A   Clear
3:36 AM 49.8 °F 50.0 °F 100% 29.97 in 10.0 mi WNW 3.5 mph - N/A   Clear
3:57 AM 48.7 °F 48.9 °F 100% 29.97 in 10.0 mi Calm Calm - N/A   Clear
4:17 AM 48.2 °F 48.4 °F 100% 29.97 in 10.0 mi NNE 3.5 mph - N/A   Clear
4:36 AM 50.2 °F 50.4 °F 100% 29.98 in 10.0 mi NNE 4.6 mph - N/A   Clear
4:57 AM 48.2 °F 48.4 °F 100% 29.98 in 10.0 mi Calm Calm - N/A   Clear
5:17 AM 47.3 °F 47.5 °F 100% 29.98 in 10.0 mi Calm Calm - N/A   Clear
5:36 AM 46.9 °F 47.1 °F 100% 29.99 in 10.0 mi Calm Calm - N/A   Clear
5:57 AM 46.4 °F 46.6 °F 100% 29.99 in 10.0 mi Calm Calm - N/A   Clear
6:17 AM 46.4 °F 46.6 °F 100% 30.01 in 10.0 mi Calm Calm - N/A   Clear
6:36 AM - - N/A% 30.01 in 10.0 mi Calm Calm - N/A   Clear
6:57 AM - - N/A% 30.02 in 10.0 mi Calm Calm - N/A   Clear
7:17 AM 51.4 °F 51.4 °F 100% 30.03 in 10.0 mi Calm Calm - N/A   Clear
7:37 AM 55.2 °F 47.1 °F 74% 30.04 in 10.0 mi Calm Calm - N/A   Clear
7:56 AM 57.0 °F 46.4 °F 68% 30.04 in 10.0 mi Calm Calm - N/A   Clear
8:17 AM 58.3 °F 47.5 °F 67% 30.04 in 10.0 mi East 4.6 mph - N/A   Clear
8:37 AM 59.4 °F 47.3 °F 64% 30.04 in 10.0 mi Calm Calm - N/A   Clear
8:57 AM 60.3 °F 46.8 °F 61% 30.05 in 10.0 mi NE 3.5 mph - N/A   Clear
9:17 AM 60.4 °F 45.3 °F 57% 30.05 in 10.0 mi Calm Calm - N/A   Clear
9:37 AM 61.5 °F 45.5 °F 56% 30.05 in 10.0 mi Calm Calm - N/A   Clear
9:57 AM 63.1 °F 46.2 °F 54% 30.04 in 10.0 mi North 3.5 mph - N/A   Clear
10:17 AM 63.3 °F 44.8 °F 51% 30.04 in 10.0 mi Calm Calm - N/A   Clear
10:37 AM 65.1 °F 47.3 °F 52% 30.04 in 10.0 mi Calm Calm - N/A   Clear
11:56 AM 68.0 °F 46.2 °F 46% 30.04 in 10.0 mi Calm Calm - N/A   Clear
12:17 PM 68.5 °F 46.9 °F 46% 30.03 in 10.0 mi NNW 3.5 mph - N/A   Clear
12:37 PM 69.4 °F 45.7 °F 42% 30.03 in 10.0 mi NNE 3.5 mph - N/A   Clear
12:56 PM 69.8 °F 46.8 °F 44% 30.03 in 10.0 mi North 5.8 mph - N/A   Clear
1:17 PM 70.7 °F 47.5 °F 44% 30.02 in 10.0 mi NE 9.2 mph - N/A   Clear
1:36 PM 71.6 °F 47.7 °F 43% 30.02 in 10.0 mi NNW 6.9 mph - N/A   Clear
1:57 PM 72.0 °F 46.0 °F 40% 30.02 in 10.0 mi NNW 4.6 mph - N/A   Clear
2:17 PM 72.5 °F 46.9 °F 40% 30.02 in 10.0 mi North 6.9 mph - N/A   Clear
2:37 PM 73.4 °F 46.2 °F 38% 30.02 in 10.0 mi NNE 4.6 mph - N/A   Clear
2:57 PM 73.6 °F 44.8 °F 36% 30.01 in 10.0 mi NNE 4.6 mph - N/A   Clear
3:17 PM 73.9 °F 43.9 °F 34% 30.02 in 10.0 mi Calm Calm - N/A   Clear
3:37 PM 73.8 °F 43.2 °F 33% 30.02 in 10.0 mi North 5.8 mph - N/A   Clear
3:56 PM 73.8 °F 43.5 °F 34% 30.01 in 10.0 mi North 6.9 mph - N/A   Clear
4:17 PM 74.3 °F 44.2 °F 34% 30.01 in 10.0 mi NNE 8.1 mph - N/A   Clear
4:37 PM 74.1 °F 43.7 °F 34% 30.01 in 10.0 mi NW 6.9 mph - N/A   Clear
5:17 PM 73.4 °F 42.1 °F 32% 30.00 in 10.0 mi WNW 5.8 mph - N/A   Clear
5:37 PM 73.0 °F 44.2 °F 36% 30.01 in 10.0 mi NNW 8.1 mph - N/A   Clear
5:57 PM 72.7 °F 42.3 °F 33% 30.01 in 10.0 mi NW 9.2 mph - N/A   Clear
6:17 PM 72.5 °F 42.8 °F 34% 30.01 in 10.0 mi NW 6.9 mph - N/A   Clear
6:36 PM 71.2 °F 42.1 °F 35% 30.01 in 10.0 mi NW 4.6 mph - N/A   Clear
6:57 PM 69.8 °F 41.2 °F 35% 30.01 in 10.0 mi NNW 4.6 mph - N/A   Clear
7:17 PM 69.3 °F 40.8 °F 36% 30.01 in 10.0 mi NNW 4.6 mph - N/A   Clear
7:36 PM 68.7 °F 42.4 °F 39% 30.02 in 10.0 mi NNW 3.5 mph - N/A   Clear
7:57 PM 68.9 °F 41.5 °F 37% 30.03 in 10.0 mi NW 3.5 mph - N/A   Clear
8:17 PM 66.6 °F 42.1 °F 41% 30.03 in 10.0 mi Calm Calm - N/A   Clear
8:37 PM 65.8 °F 41.4 °F 41% 30.03 in 10.0 mi Calm Calm - N/A   Clear
8:57 PM 63.9 °F 44.8 °F 50% 30.03 in 10.0 mi North 3.5 mph - N/A   Clear
9:17 PM 62.4 °F 43.0 °F 49% 30.03 in 10.0 mi North 3.5 mph - N/A   Clear
9:37 PM 62.8 °F 39.9 °F 43% 30.03 in 10.0 mi Calm Calm - N/A   Clear
9:57 PM 59.7 °F 40.1 °F 48% 30.03 in 10.0 mi Calm Calm - N/A   Clear
10:17 PM 57.6 °F 41.4 °F 55% 30.04 in 10.0 mi Calm Calm - N/A   Clear
10:36 PM 57.4 °F 41.5 °F 56% 30.06 in 10.0 mi Calm Calm - N/A   Clear
10:57 PM 54.9 °F 43.3 °F 65% 30.06 in 10.0 mi Calm Calm - N/A   Clear
11:17 PM 54.0 °F 43.0 °F 66% 30.06 in 10.0 mi Calm Calm - N/A   Clear
11:37 PM 51.4 °F 43.2 °F 73% 30.06 in 10.0 mi Calm Calm - N/A   Clear
11:56 PM 49.5 °F 43.0 °F 78% 30.06 in 10.0 mi Calm Calm - N/A   Clear